Terug naar catalogus

COSMOS 1275 DEB

LostPO
NORAD 42173·DEBRIS·🇷🇺 Russia

Gelanceerd Jun 4, 1981 vanaf Plesetsk Cosmodrome

Loading…

Volgende Passages (komende 24 uur)

TLE

VerouderdSource: Space-Track

Epoch: Mar 27, 2024, 20:52 UTC

1 42173U 81053SM  24087.86959335  .00002047  00000-0  28207-2 0  9997
2 42173  83.2329 144.0815 0201038 317.8320  40.7503 13.50071039439056

Volg COSMOS 1275 DEB in realtime met AllMySat

Download on the App Store